Wetterdaten: Mittwoch, 03.08.2016
Datum Zeit Temp. Auen Feucht Auen Luftdruck Regen Richtung Richtung Windben
03.08.2016 00:00 15,7 C 90 % 1019,2 hPa 0,0 mm W-NW 292 3,2 km/h (1 Bft)
03.08.2016 00:05 15,7 C 90 % 1019,3 hPa 0,0 mm W-NW 292 3,2 km/h (1 Bft)
03.08.2016 00:10 15,7 C 90 % 1019,3 hPa 0,2 mm W-SW 247 4,8 km/h (1 Bft)
03.08.2016 00:15 15,7 C 90 % 1019,2 hPa 0,0 mm W-SW 247 3,2 km/h (1 Bft)
03.08.2016 00:20 15,6 C 90 % 1019,2 hPa 0,2 mm W-SW 247 3,2 km/h (1 Bft)
03.08.2016 00:25 15,6 C 90 % 1019,2 hPa 0,0 mm W-SW 247 4,8 km/h (1 Bft)
03.08.2016 00:30 15,7 C 90 % 1019,2 hPa 0,0 mm W-SW 247 3,2 km/h (1 Bft)
03.08.2016 00:35 15,7 C 90 % 1019,2 hPa 0,0 mm W-SW 247 3,2 km/h (1 Bft)
03.08.2016 00:40 15,7 C 90 % 1019,1 hPa 0,0 mm W-SW 247 1,6 km/h (1 Bft)
03.08.2016 00:45 15,7 C 90 % 1019,1 hPa 0,0 mm W-SW 247 1,6 km/h (1 Bft)
03.08.2016 00:50 15,8 C 90 % 1019,1 hPa 0,2 mm W-SW 247 1,6 km/h (1 Bft)
03.08.2016 00:55 15,8 C 90 % 1019,0 hPa 0,0 mm W-SW 247 1,6 km/h (1 Bft)
03.08.2016 01:00 15,8 C 90 % 1019,0 hPa 0,0 mm W-SW 247 1,6 km/h (1 Bft)
03.08.2016 01:05 15,8 C 90 % 1019,0 hPa 0,0 mm W-SW 247 1,6 km/h (1 Bft)
03.08.2016 01:10 15,8 C 90 % 1018,9 hPa 0,0 mm W-SW 247 3,2 km/h (1 Bft)
03.08.2016 01:15 15,8 C 90 % 1019,0 hPa 0,0 mm W-SW 247 3,2 km/h (1 Bft)
03.08.2016 01:20 15,9 C 90 % 1018,9 hPa 0,0 mm W-SW 247 1,6 km/h (1 Bft)
03.08.2016 01:25 15,9 C 90 % 1018,9 hPa 0,0 mm W-SW 247 1,6 km/h (1 Bft)
03.08.2016 01:30 15,8 C 90 % 1019,0 hPa 0,0 mm W-SW 247 3,2 km/h (1 Bft)
03.08.2016 01:35 15,8 C 90 % 1019,0 hPa 0,0 mm W-SW 247 4,8 km/h (1 Bft)
03.08.2016 01:40 15,8 C 90 % 1019,1 hPa 0,0 mm W-SW 247 1,6 km/h (1 Bft)
03.08.2016 01:45 15,8 C 90 % 1019,0 hPa 0,0 mm W-SW 247 3,2 km/h (1 Bft)
03.08.2016 01:50 15,8 C 90 % 1019,0 hPa 0,0 mm W-SW 247 1,6 km/h (1 Bft)
03.08.2016 01:55 15,9 C 90 % 1019,0 hPa 0,0 mm W-SW 247 3,2 km/h (1 Bft)
03.08.2016 02:00 15,9 C 90 % 1019,0 hPa 0,0 mm W-SW 247 3,2 km/h (1 Bft)
03.08.2016 02:05 15,9 C 90 % 1019,0 hPa 0,0 mm W-SW 247 4,8 km/h (1 Bft)
03.08.2016 02:10 15,9 C 90 % 1019,1 hPa 0,0 mm W-SW 247 3,2 km/h (1 Bft)
03.08.2016 02:15 15,9 C 90 % 1019,1 hPa 0,0 mm W-SW 247 4,8 km/h (1 Bft)
03.08.2016 02:20 15,8 C 90 % 1019,0 hPa 0,0 mm W-SW 247 4,8 km/h (1 Bft)
03.08.2016 02:25 15,8 C 90 % 1019,0 hPa 0,0 mm W-SW 247 4,8 km/h (1 Bft)
03.08.2016 02:30 15,8 C 90 % 1019,0 hPa 0,0 mm W-SW 247 3,2 km/h (1 Bft)
03.08.2016 02:35 15,8 C 90 % 1019,0 hPa 0,0 mm W-SW 247 3,2 km/h (1 Bft)
03.08.2016 02:40 15,8 C 90 % 1019,0 hPa 0,0 mm W-SW 247 1,6 km/h (1 Bft)
03.08.2016 02:45 15,8 C 90 % 1019,0 hPa 0,0 mm W-SW 247 1,6 km/h (1 Bft)
03.08.2016 02:50 15,7 C 90 % 1019,1 hPa 0,0 mm N 0 0,0 km/h (0 Bft)
03.08.2016 02:55 15,7 C 90 % 1018,8 hPa 0,0 mm N 0 0,0 km/h (0 Bft)
03.08.2016 03:00 15,6 C 90 % 1018,9 hPa 0,0 mm N 0 0,0 km/h (0 Bft)
03.08.2016 03:05 15,5 C 90 % 1018,8 hPa 0,2 mm N 0 0,0 km/h (0 Bft)
03.08.2016 03:10 15,4 C 90 % 1018,8 hPa 0,0 mm W-SW 247 3,2 km/h (1 Bft)
03.08.2016 03:15 15,4 C 90 % 1018,8 hPa 0,0 mm W-SW 247 1,6 km/h (1 Bft)
03.08.2016 03:20 15,4 C 90 % 1018,7 hPa 0,0 mm W-SW 247 3,2 km/h (1 Bft)
03.08.2016 03:25 15,4 C 90 % 1018,8 hPa 0,0 mm W-SW 247 3,2 km/h (1 Bft)
03.08.2016 03:30 15,4 C 90 % 1018,7 hPa 0,0 mm W-SW 247 1,6 km/h (1 Bft)
03.08.2016 03:35 15,4 C 90 % 1018,7 hPa 0,0 mm N 0 0,0 km/h (0 Bft)
03.08.2016 03:40 15,4 C 90 % 1018,6 hPa 0,0 mm N 0 0,0 km/h (0 Bft)
03.08.2016 03:45 15,5 C 90 % 1018,7 hPa 0,0 mm N 0 0,0 km/h (0 Bft)
03.08.2016 03:50 15,5 C 90 % 1018,7 hPa 0,0 mm N 0 0,0 km/h (0 Bft)
03.08.2016 03:55 15,5 C 90 % 1018,7 hPa 0,0 mm N 0 0,0 km/h (0 Bft)
03.08.2016 04:00 15,4 C 90 % 1018,6 hPa 0,0 mm N 0 0,0 km/h (0 Bft)
03.08.2016 04:05 15,5 C 90 % 1018,6 hPa 0,0 mm N 0 0,0 km/h (0 Bft)
03.08.2016 04:10 15,6 C 90 % 1018,5 hPa 0,0 mm N 0 0,0 km/h (0 Bft)
03.08.2016 04:15 15,6 C 90 % 1018,5 hPa 0,0 mm N 0 0,0 km/h (0 Bft)
03.08.2016 04:20 15,6 C 90 % 1018,5 hPa 0,0 mm W-SW 247 1,6 km/h (1 Bft)
03.08.2016 04:25 15,6 C 90 % 1018,4 hPa 0,0 mm N 0 0,0 km/h (0 Bft)
03.08.2016 04:30 15,5 C 90 % 1018,3 hPa 0,0 mm W-SW 247 1,6 km/h (1 Bft)
03.08.2016 04:35 15,5 C 90 % 1018,3 hPa 0,0 mm W-SW 247 1,6 km/h (1 Bft)
03.08.2016 04:40 15,4 C 90 % 1018,3 hPa 0,0 mm N 0 0,0 km/h (0 Bft)
03.08.2016 04:45 15,4 C 90 % 1018,2 hPa 0,0 mm N 0 0,0 km/h (0 Bft)
03.08.2016 04:50 15,3 C 90 % 1018,2 hPa 0,0 mm N 0 0,0 km/h (0 Bft)
03.08.2016 04:55 15,2 C 90 % 1018,2 hPa 0,0 mm N 0 0,0 km/h (0 Bft)
03.08.2016 05:00 15,1 C 90 % 1018,2 hPa 0,0 mm N 0 0,0 km/h (0 Bft)
03.08.2016 05:05 15,2 C 90 % 1018,2 hPa 0,0 mm N 0 0,0 km/h (0 Bft)
03.08.2016 05:10 15,2 C 90 % 1018,1 hPa 0,0 mm N 0 0,0 km/h (0 Bft)
03.08.2016 05:15 15,2 C 90 % 1018,2 hPa 0,0 mm N 0 0,0 km/h (0 Bft)
03.08.2016 05:20 15,2 C 90 % 1018,2 hPa 0,0 mm N 0 0,0 km/h (0 Bft)
03.08.2016 05:25 15,2 C 90 % 1018,2 hPa 0,0 mm N 0 0,0 km/h (0 Bft)
03.08.2016 05:30 15,1 C 90 % 1018,2 hPa 0,0 mm N 0 0,0 km/h (0 Bft)
03.08.2016 05:35 15,2 C 90 % 1018,2 hPa 0,0 mm N 0 0,0 km/h (0 Bft)
03.08.2016 05:40 15,2 C 90 % 1018,2 hPa 0,0 mm N 0 0,0 km/h (0 Bft)
03.08.2016 05:45 15,2 C 90 % 1018,2 hPa 0,0 mm N 0 0,0 km/h (0 Bft)
03.08.2016 05:50 15,2 C 90 % 1018,2 hPa 0,0 mm N 0 0,0 km/h (0 Bft)
03.08.2016 05:55 15,2 C 90 % 1018,2 hPa 0,0 mm W-SW 247 1,6 km/h (1 Bft)
03.08.2016 06:00 15,2 C 90 % 1018,1 hPa 0,0 mm W-SW 247 1,6 km/h (1 Bft)
03.08.2016 06:05 15,2 C 90 % 1018,1 hPa 0,0 mm N 0 0,0 km/h (0 Bft)
03.08.2016 06:10 15,2 C 90 % 1018,2 hPa 0,0 mm W-SW 247 1,6 km/h (1 Bft)
03.08.2016 06:15 15,2 C 90 % 1018,1 hPa 0,0 mm N 0 0,0 km/h (0 Bft)
03.08.2016 06:20 15,2 C 90 % 1018,1 hPa 0,0 mm N 0 0,0 km/h (0 Bft)
03.08.2016 06:25 15,2 C 90 % 1018,1 hPa 0,0 mm N 0 0,0 km/h (0 Bft)
03.08.2016 06:30 15,3 C 90 % 1018,1 hPa 0,0 mm N 0 0,0 km/h (0 Bft)
03.08.2016 06:35 15,3 C 90 % 1018,2 hPa 0,0 mm N 0 0,0 km/h (0 Bft)
03.08.2016 06:40 15,4 C 90 % 1018,3 hPa 0,0 mm N 0 0,0 km/h (0 Bft)
03.08.2016 06:45 15,4 C 90 % 1018,3 hPa 0,0 mm N 0 0,0 km/h (0 Bft)
03.08.2016 06:50 15,6 C 90 % 1018,3 hPa 0,0 mm N 0 0,0 km/h (0 Bft)
03.08.2016 06:55 15,6 C 90 % 1018,3 hPa 0,0 mm N 0 0,0 km/h (0 Bft)
03.08.2016 07:00 15,7 C 90 % 1018,4 hPa 0,0 mm N 0 0,0 km/h (0 Bft)
03.08.2016 07:05 15,7 C 90 % 1018,3 hPa 0,0 mm N 0 0,0 km/h (0 Bft)
03.08.2016 07:10 15,8 C 90 % 1018,3 hPa 0,0 mm N 0 0,0 km/h (0 Bft)
03.08.2016 07:15 15,8 C 90 % 1018,2 hPa 0,0 mm W-SW 247 1,6 km/h (1 Bft)
03.08.2016 07:20 15,8 C 89 % 1018,2 hPa 0,0 mm N 0 0,0 km/h (0 Bft)
03.08.2016 07:25 15,8 C 90 % 1018,2 hPa 0,0 mm N 0 0,0 km/h (0 Bft)
03.08.2016 07:30 15,9 C 90 % 1018,1 hPa 0,0 mm N 0 0,0 km/h (0 Bft)
03.08.2016 07:35 15,9 C 90 % 1018,0 hPa 0,0 mm N 0 0,0 km/h (0 Bft)
03.08.2016 07:40 16,1 C 89 % 1017,9 hPa 0,0 mm N 0 0,0 km/h (0 Bft)
03.08.2016 07:45 16,3 C 89 % 1017,9 hPa 0,0 mm N 0 0,0 km/h (0 Bft)
03.08.2016 07:50 16,2 C 89 % 1017,9 hPa 0,0 mm N 0 0,0 km/h (0 Bft)
03.08.2016 07:55 16,2 C 90 % 1017,9 hPa 0,0 mm N 0 0,0 km/h (0 Bft)
03.08.2016 08:00 16,4 C 89 % 1017,9 hPa 0,0 mm S-SW 202 3,2 km/h (1 Bft)
03.08.2016 08:05 16,6 C 90 % 1017,8 hPa 0,0 mm S-SW 202 1,6 km/h (1 Bft)
03.08.2016 08:10 16,7 C 90 % 1017,7 hPa 0,0 mm S-SW 202 1,6 km/h (1 Bft)
03.08.2016 08:15 16,8 C 89 % 1017,7 hPa 0,0 mm S-SW 202 1,6 km/h (1 Bft)
03.08.2016 08:20 17,1 C 90 % 1017,6 hPa 0,0 mm S-SW 202 1,6 km/h (1 Bft)
03.08.2016 08:25 17,1 C 90 % 1017,7 hPa 0,0 mm S-SW 202 1,6 km/h (1 Bft)
03.08.2016 08:30 17,2 C 90 % 1017,5 hPa 0,0 mm S-SW 202 3,2 km/h (1 Bft)
03.08.2016 08:35 17,6 C 89 % 1017,4 hPa 0,0 mm S 180 4,8 km/h (1 Bft)
03.08.2016 08:40 17,8 C 89 % 1017,4 hPa 0,0 mm S-SO 157 6,4 km/h (2 Bft)
03.08.2016 08:45 18,0 C 89 % 1017,3 hPa 0,0 mm S-SO 157 4,8 km/h (1 Bft)
03.08.2016 08:50 18,2 C 89 % 1017,2 hPa 0,0 mm O 90 3,2 km/h (1 Bft)
03.08.2016 08:55 18,7 C 89 % 1017,2 hPa 0,0 mm SO 135 3,2 km/h (1 Bft)
03.08.2016 09:00 18,7 C 88 % 1017,2 hPa 0,0 mm SO 135 3,2 km/h (1 Bft)
03.08.2016 09:05 18,9 C 88 % 1017,1 hPa 0,0 mm SO 135 3,2 km/h (1 Bft)
03.08.2016 09:10 18,9 C 88 % 1017,0 hPa 0,0 mm SO 135 4,8 km/h (1 Bft)
03.08.2016 09:15 18,9 C 87 % 1017,0 hPa 0,0 mm O 90 6,4 km/h (2 Bft)
03.08.2016 09:20 19,0 C 87 % 1016,9 hPa 0,0 mm SO 135 6,4 km/h (2 Bft)
03.08.2016 09:25 19,2 C 86 % 1016,9 hPa 0,0 mm O 90 4,8 km/h (1 Bft)
03.08.2016 09:30 19,2 C 85 % 1016,8 hPa 0,0 mm O 90 4,8 km/h (1 Bft)
03.08.2016 09:35 19,6 C 86 % 1016,8 hPa 0,0 mm O 90 3,2 km/h (1 Bft)
03.08.2016 09:40 19,9 C 85 % 1016,7 hPa 0,0 mm O 90 3,2 km/h (1 Bft)
03.08.2016 09:45 19,8 C 84 % 1016,7 hPa 0,0 mm O 90 4,8 km/h (1 Bft)
03.08.2016 09:50 19,9 C 85 % 1016,6 hPa 0,0 mm O 90 8,0 km/h (2 Bft)
03.08.2016 09:55 20,2 C 83 % 1016,6 hPa 0,0 mm NO 45 4,8 km/h (1 Bft)
03.08.2016 10:00 20,2 C 83 % 1016,6 hPa 0,0 mm O-SO 112 4,8 km/h (1 Bft)
03.08.2016 10:05 20,4 C 80 % 1016,6 hPa 0,0 mm O-SO 112 8,0 km/h (2 Bft)
03.08.2016 10:10 20,7 C 78 % 1016,5 hPa 0,0 mm O 90 6,4 km/h (2 Bft)
03.08.2016 10:15 20,8 C 78 % 1016,5 hPa 0,0 mm S-SO 157 6,4 km/h (2 Bft)
03.08.2016 10:20 20,9 C 80 % 1016,4 hPa 0,0 mm S-SO 157 8,0 km/h (2 Bft)
03.08.2016 10:25 20,9 C 79 % 1016,4 hPa 0,0 mm S-SO 157 8,0 km/h (2 Bft)
03.08.2016 10:30 21,1 C 79 % 1016,4 hPa 0,0 mm S-SO 157 4,8 km/h (1 Bft)
03.08.2016 10:35 21,3 C 81 % 1016,2 hPa 0,0 mm S-SO 157 4,8 km/h (1 Bft)
03.08.2016 10:40 21,4 C 78 % 1016,2 hPa 0,0 mm S-SO 157 6,4 km/h (2 Bft)
03.08.2016 10:45 21,5 C 79 % 1016,1 hPa 0,0 mm O 90 8,0 km/h (2 Bft)
03.08.2016 10:50 21,4 C 77 % 1016,2 hPa 0,0 mm O 90 8,0 km/h (2 Bft)
03.08.2016 10:55 21,4 C 75 % 1016,1 hPa 0,0 mm O 90 3,2 km/h (1 Bft)
03.08.2016 11:00 21,9 C 77 % 1016,1 hPa 0,0 mm O 90 6,4 km/h (2 Bft)
03.08.2016 11:05 21,9 C 76 % 1016,1 hPa 0,0 mm SO 135 6,4 km/h (2 Bft)
03.08.2016 11:10 22,1 C 74 % 1016,1 hPa 0,0 mm SO 135 6,4 km/h (2 Bft)
03.08.2016 11:15 22,1 C 75 % 1016,0 hPa 0,0 mm SO 135 8,0 km/h (2 Bft)
03.08.2016 11:20 22,3 C 74 % 1016,0 hPa 0,0 mm S-SO 157 6,4 km/h (2 Bft)
03.08.2016 11:25 22,6 C 72 % 1016,0 hPa 0,0 mm SO 135 8,0 km/h (2 Bft)
03.08.2016 11:30 22,5 C 73 % 1015,9 hPa 0,0 mm SO 135 8,0 km/h (2 Bft)
03.08.2016 11:35 22,8 C 75 % 1015,9 hPa 0,0 mm S-SO 157 8,0 km/h (2 Bft)
03.08.2016 11:40 23,1 C 72 % 1015,8 hPa 0,0 mm O-SO 112 8,0 km/h (2 Bft)
03.08.2016 11:45 23,1 C 69 % 1015,8 hPa 0,0 mm SO 135 8,0 km/h (2 Bft)
03.08.2016 11:50 23,2 C 72 % 1015,8 hPa 0,0 mm O-NO 67 4,8 km/h (1 Bft)
03.08.2016 11:55 23,6 C 70 % 1015,8 hPa 0,0 mm O-NO 67 6,4 km/h (2 Bft)
03.08.2016 12:00 23,5 C 69 % 1015,8 hPa 0,0 mm O-SO 112 6,4 km/h (2 Bft)
03.08.2016 12:05 23,7 C 65 % 1015,6 hPa 0,0 mm O-SO 112 8,0 km/h (2 Bft)
03.08.2016 12:10 23,8 C 65 % 1015,6 hPa 0,0 mm O-SO 112 6,4 km/h (2 Bft)
03.08.2016 12:15 24,3 C 65 % 1015,5 hPa 0,0 mm NO 45 4,8 km/h (1 Bft)
03.08.2016 12:20 24,3 C 65 % 1015,5 hPa 0,0 mm S-SO 157 6,4 km/h (2 Bft)
03.08.2016 12:25 24,2 C 67 % 1015,5 hPa 0,0 mm S-SO 157 4,8 km/h (1 Bft)
03.08.2016 12:30 24,6 C 64 % 1015,5 hPa 0,0 mm SO 135 4,8 km/h (1 Bft)
03.08.2016 12:35 24,9 C 64 % 1015,4 hPa 0,0 mm N-NO 22 4,8 km/h (1 Bft)
03.08.2016 12:40 24,9 C 63 % 1015,4 hPa 0,0 mm N-NO 22 6,4 km/h (2 Bft)
03.08.2016 12:45 26,2 C 58 % 1015,3 hPa 0,0 mm W-SW 247 9,7 km/h (2 Bft)
03.08.2016 12:50 26,0 C 57 % 1015,3 hPa 0,0 mm W-SW 247 9,7 km/h (2 Bft)
03.08.2016 12:55 26,6 C 59 % 1015,2 hPa 0,0 mm W-SW 247 9,7 km/h (2 Bft)
03.08.2016 13:00 26,8 C 58 % 1015,2 hPa 0,0 mm W 270 6,4 km/h (2 Bft)
03.08.2016 13:05 26,8 C 54 % 1015,1 hPa 0,0 mm W 270 6,4 km/h (2 Bft)
03.08.2016 13:10 26,0 C 56 % 1015,0 hPa 0,0 mm S 180 6,4 km/h (2 Bft)
03.08.2016 13:15 26,5 C 61 % 1015,0 hPa 0,0 mm S 180 6,4 km/h (2 Bft)
03.08.2016 13:20 26,5 C 59 % 1014,9 hPa 0,0 mm S 180 8,0 km/h (2 Bft)
03.08.2016 13:25 26,3 C 61 % 1014,8 hPa 0,0 mm S 180 6,4 km/h (2 Bft)
03.08.2016 13:30 26,7 C 56 % 1014,7 hPa 0,0 mm N-NO 22 4,8 km/h (1 Bft)
03.08.2016 13:35 27,3 C 57 % 1014,6 hPa 0,0 mm W 270 6,4 km/h (2 Bft)
03.08.2016 13:40 27,8 C 53 % 1014,6 hPa 0,0 mm W 270 6,4 km/h (2 Bft)
03.08.2016 13:45 26,5 C 60 % 1014,6 hPa 0,0 mm N 360 4,8 km/h (1 Bft)
03.08.2016 13:50 27,1 C 57 % 1014,5 hPa 0,0 mm W-NW 292 6,4 km/h (2 Bft)
03.08.2016 13:55 26,5 C 56 % 1014,4 hPa 0,0 mm W-NW 292 1,6 km/h (1 Bft)
03.08.2016 14:00 26,8 C 60 % 1014,3 hPa 0,0 mm W-NW 292 6,4 km/h (2 Bft)
03.08.2016 14:05 26,7 C 52 % 1014,3 hPa 0,0 mm N-NO 22 6,4 km/h (2 Bft)
03.08.2016 14:10 26,2 C 56 % 1014,2 hPa 0,0 mm O-SO 112 4,8 km/h (1 Bft)
03.08.2016 14:15 26,7 C 57 % 1014,2 hPa 0,0 mm O-SO 112 3,2 km/h (1 Bft)
03.08.2016 14:20 27,1 C 51 % 1014,1 hPa 0,0 mm N 360 6,4 km/h (2 Bft)
03.08.2016 14:25 27,2 C 55 % 1014,1 hPa 0,0 mm S-SO 157 6,4 km/h (2 Bft)
03.08.2016 14:30 27,1 C 52 % 1014,1 hPa 0,0 mm W-SW 247 8,0 km/h (2 Bft)
03.08.2016 14:35 26,5 C 55 % 1014,1 hPa 0,0 mm S-SO 157 6,4 km/h (2 Bft)
03.08.2016 14:40 26,4 C 55 % 1014,0 hPa 0,0 mm S-SO 157 6,4 km/h (2 Bft)
03.08.2016 14:45 26,6 C 56 % 1014,0 hPa 0,0 mm S-SO 157 6,4 km/h (2 Bft)
03.08.2016 14:50 26,8 C 54 % 1014,0 hPa 0,0 mm S-SO 157 3,2 km/h (1 Bft)
03.08.2016 14:55 27,1 C 54 % 1014,0 hPa 0,0 mm O-SO 112 8,0 km/h (2 Bft)
03.08.2016 15:00 26,8 C 55 % 1014,0 hPa 0,0 mm SO 135 4,8 km/h (1 Bft)
03.08.2016 15:05 27,0 C 58 % 1013,9 hPa 0,0 mm SO 135 8,0 km/h (2 Bft)
03.08.2016 15:10 26,9 C 57 % 1013,8 hPa 0,0 mm O 90 9,7 km/h (2 Bft)
03.08.2016 15:15 26,9 C 56 % 1013,8 hPa 0,0 mm NO 45 8,0 km/h (2 Bft)
03.08.2016 15:20 26,7 C 57 % 1013,7 hPa 0,0 mm O-SO 112 8,0 km/h (2 Bft)
03.08.2016 15:25 26,7 C 57 % 1013,7 hPa 0,0 mm O-NO 67 3,2 km/h (1 Bft)
03.08.2016 15:30 26,8 C 56 % 1013,7 hPa 0,0 mm O-SO 112 8,0 km/h (2 Bft)
03.08.2016 15:35 26,7 C 57 % 1013,7 hPa 0,0 mm S-SO 157 6,4 km/h (2 Bft)
03.08.2016 15:40 27,3 C 54 % 1013,7 hPa 0,0 mm NO 45 8,0 km/h (2 Bft)
03.08.2016 15:45 27,3 C 46 % 1013,7 hPa 0,0 mm S 180 4,8 km/h (1 Bft)
03.08.2016 15:50 27,8 C 47 % 1013,7 hPa 0,0 mm W-SW 247 12,9 km/h (3 Bft)
03.08.2016 15:55 28,1 C 45 % 1013,7 hPa 0,0 mm W-SW 247 8,0 km/h (2 Bft)
03.08.2016 16:00 28,3 C 47 % 1013,6 hPa 0,0 mm W 270 9,7 km/h (2 Bft)
03.08.2016 16:05 28,1 C 46 % 1013,6 hPa 0,0 mm W 270 12,9 km/h (3 Bft)
03.08.2016 16:10 27,7 C 49 % 1013,6 hPa 0,0 mm W 270 6,4 km/h (2 Bft)
03.08.2016 16:15 27,9 C 50 % 1013,6 hPa 0,0 mm W 270 8,0 km/h (2 Bft)
03.08.2016 16:20 27,9 C 49 % 1013,7 hPa 0,0 mm W 270 9,7 km/h (2 Bft)
03.08.2016 16:25 27,8 C 49 % 1013,6 hPa 0,0 mm W 270 4,8 km/h (1 Bft)
03.08.2016 16:30 27,9 C 48 % 1013,6 hPa 0,0 mm W-SW 247 16,1 km/h (3 Bft)
03.08.2016 16:35 27,6 C 50 % 1013,6 hPa 0,0 mm W 270 16,1 km/h (3 Bft)
03.08.2016 16:40 27,3 C 49 % 1013,6 hPa 0,0 mm W 270 8,0 km/h (2 Bft)
03.08.2016 16:45 27,6 C 52 % 1013,6 hPa 0,0 mm W 270 8,0 km/h (2 Bft)
03.08.2016 16:50 27,1 C 53 % 1013,5 hPa 0,0 mm W-SW 247 8,0 km/h (2 Bft)
03.08.2016 16:55 27,3 C 53 % 1013,5 hPa 0,0 mm W-NW 292 8,0 km/h (2 Bft)
03.08.2016 17:00 27,6 C 50 % 1013,4 hPa 0,0 mm W 270 6,4 km/h (2 Bft)
03.08.2016 17:05 27,5 C 52 % 1013,4 hPa 0,0 mm W-SW 247 16,1 km/h (3 Bft)
03.08.2016 17:10 27,2 C 52 % 1013,4 hPa 0,0 mm W 270 14,5 km/h (3 Bft)
03.08.2016 17:15 27,1 C 53 % 1013,3 hPa 0,0 mm W 270 6,4 km/h (2 Bft)
03.08.2016 17:20 27,3 C 52 % 1013,3 hPa 0,0 mm W 270 8,0 km/h (2 Bft)
03.08.2016 17:25 27,3 C 51 % 1013,3 hPa 0,0 mm W-SW 247 11,3 km/h (2 Bft)
03.08.2016 17:30 26,9 C 52 % 1013,2 hPa 0,0 mm W 270 6,4 km/h (2 Bft)
03.08.2016 17:35 26,3 C 54 % 1013,2 hPa 0,0 mm W 270 3,2 km/h (1 Bft)
03.08.2016 17:40 26,8 C 54 % 1013,2 hPa 0,0 mm W 270 8,0 km/h (2 Bft)
03.08.2016 17:45 27,2 C 54 % 1013,2 hPa 0,0 mm W 270 9,7 km/h (2 Bft)
03.08.2016 17:50 27,4 C 52 % 1013,2 hPa 0,0 mm W 270 8,0 km/h (2 Bft)
03.08.2016 17:55 27,3 C 54 % 1013,2 hPa 0,0 mm W 270 4,8 km/h (1 Bft)
03.08.2016 18:00 27,3 C 53 % 1013,2 hPa 0,0 mm W 270 9,7 km/h (2 Bft)
03.08.2016 18:05 27,3 C 51 % 1013,2 hPa 0,0 mm W 270 11,3 km/h (2 Bft)
03.08.2016 18:10 27,1 C 53 % 1013,1 hPa 0,0 mm W 270 9,7 km/h (2 Bft)
03.08.2016 18:15 26,9 C 54 % 1013,1 hPa 0,0 mm W 270 3,2 km/h (1 Bft)
03.08.2016 18:20 26,9 C 54 % 1013,2 hPa 0,0 mm W 270 8,0 km/h (2 Bft)
03.08.2016 18:25 26,8 C 53 % 1013,1 hPa 0,0 mm W 270 4,8 km/h (1 Bft)
03.08.2016 18:30 26,8 C 52 % 1013,0 hPa 0,0 mm W 270 8,0 km/h (2 Bft)
03.08.2016 18:35 26,4 C 56 % 1013,0 hPa 0,0 mm W 270 4,8 km/h (1 Bft)
03.08.2016 18:40 26,4 C 55 % 1012,9 hPa 0,0 mm W 270 4,8 km/h (1 Bft)
03.08.2016 18:45 26,1 C 56 % 1012,9 hPa 0,0 mm W 270 3,2 km/h (1 Bft)
03.08.2016 18:50 25,8 C 58 % 1012,9 hPa 0,0 mm W 270 3,2 km/h (1 Bft)
03.08.2016 18:55 25,8 C 58 % 1012,9 hPa 0,0 mm W 270 4,8 km/h (1 Bft)
03.08.2016 19:00 25,6 C 63 % 1012,9 hPa 0,0 mm W 270 1,6 km/h (1 Bft)
03.08.2016 19:05 25,6 C 63 % 1012,9 hPa 0,0 mm W 270 1,6 km/h (1 Bft)
03.08.2016 19:10 25,6 C 62 % 1012,9 hPa 0,0 mm W 270 1,6 km/h (1 Bft)
03.08.2016 19:15 25,4 C 63 % 1012,9 hPa 0,0 mm W 270 1,6 km/h (1 Bft)
03.08.2016 19:20 24,9 C 67 % 1012,9 hPa 0,0 mm W 270 3,2 km/h (1 Bft)
03.08.2016 19:25 24,6 C 68 % 1012,9 hPa 0,0 mm W 270 3,2 km/h (1 Bft)
03.08.2016 19:30 24,4 C 69 % 1012,9 hPa 0,0 mm N 0 0,0 km/h (0 Bft)
03.08.2016 19:35 24,2 C 69 % 1012,9 hPa 0,0 mm W 270 1,6 km/h (1 Bft)
03.08.2016 19:40 24,0 C 69 % 1012,9 hPa 0,0 mm W 270 3,2 km/h (1 Bft)
03.08.2016 19:45 23,8 C 72 % 1012,9 hPa 0,0 mm W 270 1,6 km/h (1 Bft)
03.08.2016 19:50 23,5 C 73 % 1012,9 hPa 0,0 mm N 0 0,0 km/h (0 Bft)
03.08.2016 19:55 23,1 C 77 % 1012,9 hPa 0,0 mm N 0 0,0 km/h (0 Bft)
03.08.2016 20:00 22,4 C 80 % 1012,9 hPa 0,0 mm N 0 0,0 km/h (0 Bft)
03.08.2016 20:05 22,1 C 80 % 1012,9 hPa 0,0 mm N 0 0,0 km/h (0 Bft)
03.08.2016 20:10 22,0 C 78 % 1013,0 hPa 0,0 mm N 0 0,0 km/h (0 Bft)
03.08.2016 20:15 21,7 C 79 % 1013,0 hPa 0,0 mm N 0 0,0 km/h (0 Bft)
03.08.2016 20:20 21,3 C 79 % 1013,1 hPa 0,0 mm N 0 0,0 km/h (0 Bft)
03.08.2016 20:25 21,0 C 81 % 1013,2 hPa 0,0 mm N 0 0,0 km/h (0 Bft)
03.08.2016 20:30 20,9 C 82 % 1013,1 hPa 0,0 mm N 0 0,0 km/h (0 Bft)
03.08.2016 20:35 20,9 C 82 % 1013,2 hPa 0,0 mm N 0 0,0 km/h (0 Bft)
03.08.2016 20:40 20,6 C 83 % 1013,3 hPa 0,0 mm N 0 0,0 km/h (0 Bft)
03.08.2016 20:45 20,5 C 84 % 1013,3 hPa 0,0 mm N 0 0,0 km/h (0 Bft)
03.08.2016 20:50 20,4 C 84 % 1013,4 hPa 0,0 mm N 0 0,0 km/h (0 Bft)
03.08.2016 20:55 20,4 C 85 % 1013,5 hPa 0,0 mm N 0 0,0 km/h (0 Bft)
03.08.2016 21:00 20,4 C 85 % 1013,5 hPa 0,0 mm N 0 0,0 km/h (0 Bft)
03.08.2016 21:05 20,4 C 86 % 1013,6 hPa 0,0 mm N 0 0,0 km/h (0 Bft)
03.08.2016 21:10 20,2 C 86 % 1013,6 hPa 0,0 mm N 0 0,0 km/h (0 Bft)
03.08.2016 21:15 20,1 C 86 % 1013,6 hPa 0,0 mm N 0 0,0 km/h (0 Bft)
03.08.2016 21:20 20,1 C 87 % 1013,7 hPa 0,0 mm N 0 0,0 km/h (0 Bft)
03.08.2016 21:25 20,2 C 86 % 1013,7 hPa 0,0 mm W 270 1,6 km/h (1 Bft)
03.08.2016 21:30 20,4 C 85 % 1013,8 hPa 0,0 mm W 270 3,2 km/h (1 Bft)
03.08.2016 21:35 20,6 C 84 % 1013,8 hPa 0,0 mm W 270 3,2 km/h (1 Bft)
03.08.2016 21:40 20,6 C 84 % 1013,8 hPa 0,0 mm W 270 3,2 km/h (1 Bft)
03.08.2016 21:45 20,6 C 84 % 1013,8 hPa 0,0 mm W 270 1,6 km/h (1 Bft)
03.08.2016 21:55 20,2 C 85 % 1013,8 hPa 0,0 mm W 265 1,6 km/h (1 Bft)
03.08.2016 22:00 20,1 C 85 % 1013,9 hPa 0,0 mm W 265 3,2 km/h (1 Bft)
03.08.2016 22:05 20,1 C 85 % 1013,9 hPa 0,0 mm W 266 4,8 km/h (1 Bft)
03.08.2016 22:10 19,9 C 85 % 1014,0 hPa 0,0 mm W 266 3,2 km/h (1 Bft)
03.08.2016 22:15 19,9 C 85 % 1014,0 hPa 0,0 mm W 266 3,2 km/h (1 Bft)
03.08.2016 22:20 19,8 C 85 % 1014,0 hPa 0,0 mm W 266 3,2 km/h (1 Bft)
03.08.2016 22:25 19,7 C 86 % 1014,1 hPa 0,0 mm W 266 4,8 km/h (1 Bft)
03.08.2016 22:30 19,5 C 86 % 1014,0 hPa 0,0 mm W 266 3,2 km/h (1 Bft)
03.08.2016 22:35 19,4 C 86 % 1013,9 hPa 0,0 mm W 266 3,2 km/h (1 Bft)
03.08.2016 22:40 19,3 C 86 % 1014,0 hPa 0,0 mm W 266 4,8 km/h (1 Bft)
03.08.2016 22:45 19,1 C 87 % 1013,9 hPa 0,0 mm W 266 1,6 km/h (1 Bft)
03.08.2016 22:50 19,0 C 87 % 1014,0 hPa 0,0 mm W 266 1,6 km/h (1 Bft)
03.08.2016 22:55 19,0 C 87 % 1014,0 hPa 0,0 mm W 266 1,6 km/h (1 Bft)
03.08.2016 23:00 19,0 C 87 % 1014,0 hPa 0,0 mm W 266 1,6 km/h (1 Bft)
03.08.2016 23:05 18,8 C 87 % 1014,0 hPa 0,0 mm W 266 1,6 km/h (1 Bft)
03.08.2016 23:10 18,7 C 87 % 1013,9 hPa 0,0 mm W 266 1,6 km/h (1 Bft)
03.08.2016 23:15 18,6 C 88 % 1013,9 hPa 0,0 mm W 266 1,6 km/h (1 Bft)
03.08.2016 23:20 18,5 C 88 % 1014,0 hPa 0,0 mm W 266 1,6 km/h (1 Bft)
03.08.2016 23:25 18,4 C 88 % 1014,0 hPa 0,0 mm W 266 0,0 km/h (0 Bft)
03.08.2016 23:30 18,4 C 88 % 1014,0 hPa 0,0 mm W 266 0,0 km/h (0 Bft)
03.08.2016 23:35 18,3 C 88 % 1014,0 hPa 0,0 mm W 266 0,0 km/h (0 Bft)
03.08.2016 23:40 18,3 C 88 % 1014,0 hPa 0,0 mm W 266 3,2 km/h (1 Bft)
03.08.2016 23:45 18,3 C 88 % 1014,0 hPa 0,0 mm W 268 4,8 km/h (1 Bft)
03.08.2016 23:50 18,4 C 88 % 1014,0 hPa 0,0 mm W 268 4,8 km/h (1 Bft)
03.08.2016 23:55 18,5 C 89 % 1014,0 hPa 0,0 mm W 268 3,2 km/h (1 Bft)
_ Min-Zeit 05:00 15:55 18:40 - - - 02:50
Minimum _ 15,1 C 45 % 1012,9 hPa - - - 0,0 km/h (0 Bft)
_ Max-Zeit 16:05 00:00 00:05 00:10 - - 16:30
Maximum _ 28,4 C 90 % 1019,3 hPa 0,2 mm - - 16,1 km/h
W-SW (3 Bft)
Durchschnitt _ 20,7 C 77 % 1015,9 hPa #0,8 mm W - 3,8 km/h (1 Bft)